SL-8 R/B (20775 NORAD) Tracking and Keplerian Element Data

This shows tracking and keplerian element data for the satellite.

Feedback or suggestion? Click here.




ElementValue
Catalog20775
NameSL-8 R/B
Epoch Orbit69351
Epoch Day12.62447484
Epoch Year2024
RAAN220.2328
Inclination82.9153
Eccentricity0.0493621
Argument of Perigee75.2113
Mean Anonmoly290.3224
Mean Motion14.54799059
Decay Rate0.00011419
L11 20775U 90078B 24012.62447484 .00011419 00000+0 46999-3 0 9998
L22 20775 82.9153 220.2328 0493621 75.2113 290.3224 14.54799059693513



Live tracking and technical data element details for SL-8 R/B (NORAD 20775). SL-8 R/B can be tracked NOW for your location showing map with azimuth and elevation plus other details from your city location.







IsCatalogInMostPopularTable: catalog: 20775, numindb: 300
Update: records affected: 1



GetName: 20775 SL-8 R/B

Hit Count: updated at: Sun, 14 Apr 2024 23:20:37 GMT